Chicopee, MA

6:56 AM EST on February 13, 2016 (GMT -0500)
Westover Air Reserve Base / Metropolitan Airport

Weather History for KCEF - April, 2014

Change the Weather History Date:

Tuesday, April 1, 2014

  Actual Average Record
Temperature  
Mean Temperature 44 °F -  
Max Temperature 57 °F 49 °F 68 °F (2006)
Min Temperature 32 °F 31 °F 23 °F (2007)
Degree Days  
Heating Degree Days 20    
Moisture  
Dew Point 30 °F    
Average Humidity 60    
Maximum Humidity 80    
Minimum Humidity 37    
Precipitation  
Precipitation 0.00 in - - ()
Sea Level Pressure  
Sea Level Pressure 30.07 in    
Wind  
Wind Speed 11 mph (NE)    
Max Wind Speed 17 mph    
Max Gust Speed 23 mph    
Visibility 10 miles    
Events      
Averages and records for this station are not official NWS values.
T = Trace of Precipitation, MM = Missing Value Source: NWS Daily Summary

Daily Weather History Graph

Daily Weather History Graph

Search for Another Location

Airport or City:

Trip Planner

Search our weather history database for the weather conditions in past years. The results will help you decide how hot, cold, wet, or windy it might be!

Date:

Astronomy

Apr. 01, 2014 Rise Set
Actual Time 6:32 AM EDT 7:15 PM EDT
Civil Twilight 6:04 AM EDT 7:44 PM EDT
Nautical Twilight 5:31 AM EDT 8:17 PM EDT
Astronomical Twilight 4:56 AM EDT 8:52 PM EDT
Moon 7:31 AM EDT (4/1) 9:38 PM EDT (4/1)
Length of Visible Light 13h 39m
Length of Day
12h 43m
Waxing Crescent, 4% of the Moon is Illuminated
Apr 1
Waxing Crescent
Apr 7
First Quarter
Apr 15
Full
Apr 22
Last Quarter
Apr 29
New

Hourly Weather History & Observations

Time (EDT) Temp. Windchill Dew Point Humidity Pressure Visibility Wind Dir Wind Speed Gust Speed Precip Events Conditions
12:58 AM 37.8 °F 28.3 °F 27.3 °F 66% 30.06 in 10.0 mi NNE 17.3 mph 23.0 mph N/A   Overcast
1:58 AM 36.5 °F 28.7 °F 27.0 °F 68% 30.06 in 10.0 mi NNE 11.5 mph 18.4 mph N/A   Partly Cloudy
2:58 AM 35.6 °F 27.5 °F 26.6 °F 70% 30.06 in 10.0 mi NNE 11.5 mph - N/A   Clear
3:58 AM 34.0 °F 25.5 °F 26.8 °F 75% 30.08 in 10.0 mi NNE 11.5 mph - N/A   Clear
4:58 AM 33.8 °F 23.9 °F 26.6 °F 75% 30.09 in 10.0 mi NNE 15.0 mph 20.7 mph N/A   Clear
5:58 AM 32.7 °F 22.5 °F 26.1 °F 76% 30.08 in 10.0 mi NNE 15.0 mph - N/A   Clear
6:58 AM 32.7 °F 23.4 °F 25.7 °F 75% 30.10 in 10.0 mi North 12.7 mph - N/A   Clear
7:58 AM 35.2 °F 26.6 °F 25.7 °F 68% 30.11 in 10.0 mi North 12.7 mph - N/A   Clear
8:58 AM 37.9 °F 31.5 °F 26.2 °F 63% 30.13 in 10.0 mi North 9.2 mph - N/A   Clear
9:58 AM 41.2 °F 35.0 °F 27.1 °F 57% 30.12 in 10.0 mi NNE 10.4 mph - N/A   Clear
10:58 AM 45.1 °F 41.4 °F 27.7 °F 50% 30.11 in 10.0 mi North 6.9 mph - N/A   Clear
11:58 AM 46.6 °F - 28.0 °F 49% 30.09 in 10.0 mi North 9.2 mph - N/A   Clear
12:58 PM 49.6 °F - 29.5 °F 46% 30.07 in 10.0 mi NE 4.6 mph - N/A   Clear
1:58 PM 53.6 °F - 31.3 °F 43% 30.06 in 10.0 mi Variable 6.9 mph - N/A   Clear
2:58 PM 55.6 °F - 32.0 °F 41% 30.04 in 10.0 mi ENE 10.4 mph - N/A   Clear
3:58 PM 57.0 °F - 32.2 °F 39% 30.02 in 10.0 mi NE 6.9 mph - N/A   Clear
4:58 PM 57.9 °F - 31.8 °F 37% 30.00 in 10.0 mi Variable 2.3 mph - N/A   Clear
5:58 PM 55.9 °F - 31.8 °F 40% 30.01 in 10.0 mi Variable 3.5 mph - N/A   Clear
6:58 PM 53.4 °F - 31.3 °F 43% 30.01 in 10.0 mi East 2.3 mph - N/A   Clear
7:58 PM 50.7 °F - 32.0 °F 49% 30.04 in 10.0 mi East 1.2 mph - N/A   Clear
8:58 PM 44.8 °F - 35.8 °F 71% 30.06 in 10.0 mi East 2.3 mph - N/A   Clear
9:58 PM 42.6 °F - 36.5 °F 79% 30.08 in 10.0 mi ESE 2.3 mph - N/A   Clear
10:58 PM 43.5 °F 37.9 °F 34.5 °F 71% 30.10 in 10.0 mi SSE 10.4 mph - N/A   Clear
11:58 PM 38.7 °F 35.2 °F 33.1 °F 80% 30.11 in 10.0 mi SSE 4.6 mph - N/A   Clear